Time,TemperatureF,DewpointF,PressureIn,WindDirection,WindDirectionDegrees,WindSpeedMPH,WindSpeedGustMPH,Humidity,HourlyPrecipIn,Conditions,Clouds,dailyrainin,SoftwareType,DateUTC
2013-01-21 06:50:00,57.4,12.9,29.66,NE,49,4.0,10.0,17,0.00,,,0.00,Wunderground v.1.15,2013-01-21 14:50:00,
2013-01-21 06:51:00,57.5,11.6,29.66,NNE,31,5.0,10.0,16,0.00,,,0.00,Wunderground v.1.15,2013-01-21 14:51:00,
2013-01-21 06:52:00,57.6,11.7,29.66,ENE,67,5.0,10.0,16,0.00,,,0.00,Wunderground v.1.15,2013-01-21 14:52:00,
2013-01-21 06:58:00,58.4,12.3,29.66,NE,42,6.0,13.0,16,0.00,,,0.00,Wunderground v.1.15,2013-01-21 14:58:00,
2013-01-21 06:59:00,58.7,12.6,29.66,NE,34,6.0,13.0,16,0.00,,,0.00,Wunderground v.1.15,2013-01-21 14:59:00,
2013-01-21 07:04:00,59.1,12.9,29.66,ENE,57,6.0,8.0,16,0.00,,,0.00,Wunderground v.1.15,2013-01-21 15:04:00,
2013-01-21 07:10:00,59.4,11.7,29.67,NE,44,7.0,8.0,15,0.00,,,0.00,Wunderground v.1.15,2013-01-21 15:10:00,
2013-01-21 07:15:00,59.9,10.5,29.67,East,86,7.0,8.0,14,0.00,,,0.00,Wunderground v.1.15,2013-01-21 15:15:00,
2013-01-21 07:20:00,60.2,12.3,29.67,ENE,65,6.0,9.0,15,0.00,,,0.00,Wunderground v.1.15,2013-01-21 15:20:00,
2013-01-21 07:25:00,60.5,11.0,29.67,ENE,74,5.0,9.0,14,0.00,,,0.00,Wunderground v.1.15,2013-01-21 15:25:00,
2013-01-21 07:31:00,60.9,11.3,29.67,NNE,32,5.0,5.0,14,0.00,,,0.00,Wunderground v.1.15,2013-01-21 15:31:00,
2013-01-21 07:36:00,61.2,11.5,29.67,NE,56,5.0,8.0,14,0.00,,,0.00,Wunderground v.1.15,2013-01-21 15:36:00,
2013-01-21 07:42:00,61.5,11.8,29.67,NE,52,6.0,7.0,14,0.00,,,0.00,Wunderground v.1.15,2013-01-21 15:42:00,
2013-01-21 07:48:00,62.0,13.8,29.67,ENE,57,7.0,10.0,15,0.00,,,0.00,Wunderground v.1.15,2013-01-21 15:48:00,
2013-01-21 08:26:00,66.9,10.6,29.69,ENE,57,9.0,9.0,11,0.00,,,0.00,Wunderground v.1.15,2013-01-21 16:26:00,
2013-01-21 08:31:00,67.5,11.1,29.69,ESE,113,9.0,10.0,11,0.00,,,0.00,Wunderground v.1.15,2013-01-21 16:31:00,
2013-01-21 08:36:00,67.9,11.4,29.69,ENE,71,8.0,12.0,11,0.00,,,0.00,Wunderground v.1.15,2013-01-21 16:36:00,
2013-01-21 08:42:00,68.3,9.5,29.69,ENE,74,8.0,12.0,10,0.00,,,0.00,Wunderground v.1.15,2013-01-21 16:42:00,
2013-01-21 08:54:00,69.3,10.3,29.70,ENE,59,9.0,11.0,10,0.00,,,0.00,Wunderground v.1.15,2013-01-21 16:54:00,
2013-01-21 09:00:00,70.0,10.9,29.70,ESE,105,8.0,8.0,10,0.00,,,0.00,Wunderground v.1.15,2013-01-21 17:00:00,
2013-01-21 09:05:00,70.7,11.4,29.71,ENE,63,8.0,11.0,10,0.00,,,0.00,Wunderground v.1.15,2013-01-21 17:05:00,
2013-01-21 09:10:00,71.2,11.8,29.71,NE,50,9.0,9.0,10,0.00,,,0.00,Wunderground v.1.15,2013-01-21 17:10:00,
2013-01-21 09:35:00,72.7,7.9,29.72,ENE,71,10.0,10.0,8,0.00,,,0.00,Wunderground v.1.15,2013-01-21 17:35:00,
2013-01-21 09:41:00,73.0,10.8,29.73,NNE,24,9.0,10.0,9,0.00,,,0.00,Wunderground v.1.15,2013-01-21 17:41:00,
2013-01-21 09:46:00,73.4,8.4,29.73,East,80,8.0,16.0,8,0.00,,,0.00,Wunderground v.1.15,2013-01-21 17:46:00,
2013-01-21 09:51:00,73.5,8.5,29.73,ENE,65,9.0,16.0,8,0.00,,,0.00,Wunderground v.1.15,2013-01-21 17:51:00,
2013-01-21 09:57:00,73.7,8.7,29.73,NNW,343,9.0,9.0,8,0.00,,,0.00,Wunderground v.1.15,2013-01-21 17:57:00,
2013-01-21 10:10:00,74.4,9.2,29.74,East,86,9.0,9.0,8,0.00,,,0.00,Wunderground v.1.15,2013-01-21 18:10:00,
2013-01-21 10:16:00,74.6,6.4,29.74,ENE,61,9.0,14.0,7,0.00,,,0.00,Wunderground v.1.15,2013-01-21 18:16:00,
2013-01-21 10:22:00,75.0,6.7,29.74,ENE,68,9.0,14.0,7,0.00,,,0.00,Wunderground v.1.15,2013-01-21 18:22:00,
2013-01-21 10:28:00,75.2,6.8,29.74,NNE,32,10.0,17.0,7,0.00,,,0.00,Wunderground v.1.15,2013-01-21 18:28:00,
2013-01-21 10:33:00,75.4,7.0,29.74,East,82,8.0,11.0,7,0.00,,,0.00,Wunderground v.1.15,2013-01-21 18:33:00,
2013-01-21 10:38:00,75.7,7.2,29.74,East,83,8.0,11.0,7,0.00,,,0.00,Wunderground v.1.15,2013-01-21 18:38:00,
2013-01-21 10:44:00,75.8,7.3,29.74,NE,55,10.0,17.0,7,0.00,,,0.00,Wunderground v.1.15,2013-01-21 18:44:00,
2013-01-21 10:49:00,75.9,7.3,29.74,NNE,31,11.0,17.0,7,0.00,,,0.00,Wunderground v.1.15,2013-01-21 18:49:00,
2013-01-21 10:55:00,75.9,10.3,29.74,ENE,65,10.0,14.0,8,0.00,,,0.00,Wunderground v.1.15,2013-01-21 18:55:00,
2013-01-21 11:12:00,76.4,4.3,29.74,NNE,31,10.0,14.0,6,0.00,,,0.00,Wunderground v.1.15,2013-01-21 19:12:00,
2013-01-21 11:18:00,76.5,4.4,29.74,SE,143,11.0,18.0,6,0.00,,,0.00,Wunderground v.1.15,2013-01-21 19:18:00,
2013-01-21 11:23:00,76.6,4.5,29.74,NE,46,11.0,11.0,6,0.00,,,0.00,Wunderground v.1.15,2013-01-21 19:23:00,
2013-01-21 11:28:00,76.6,4.5,29.74,NE,40,10.0,15.0,6,0.00,,,0.00,Wunderground v.1.15,2013-01-21 19:28:00,
2013-01-21 11:33:00,76.8,4.6,29.73,NE,43,10.0,10.0,6,0.00,,,0.00,Wunderground v.1.15,2013-01-21 19:33:00,
2013-01-21 11:39:00,76.9,4.7,29.73,NNE,33,11.0,16.0,6,0.00,,,0.00,Wunderground v.1.15,2013-01-21 19:39:00,
2013-01-21 11:44:00,77.0,4.7,29.73,NE,49,11.0,19.0,6,0.00,,,0.00,Wunderground v.1.15,2013-01-21 19:44:00,
2013-01-21 11:49:00,77.0,4.7,29.72,NNE,23,10.0,23.0,6,0.00,,,0.00,Wunderground v.1.15,2013-01-21 19:49:00,
2013-01-21 11:54:00,77.1,4.8,29.72,NNW,339,11.0,16.0,6,0.00,,,0.00,Wunderground v.1.15,2013-01-21 19:54:00,
2013-01-21 12:00:00,77.2,4.9,29.71,North,360,10.0,10.0,6,0.00,,,0.00,Wunderground v.1.15,2013-01-21 20:00:00,
2013-01-21 12:05:00,77.3,5.0,29.71,NNE,26,10.0,19.0,6,0.00,,,0.00,Wunderground v.1.15,2013-01-21 20:05:00,
2013-01-21 12:10:00,77.3,1.0,29.71,ENE,62,11.0,13.0,5,0.00,,,0.00,Wunderground v.1.15,2013-01-21 20:10:00,
2013-01-21 12:16:00,77.3,5.0,29.70,NE,46,11.0,14.0,6,0.00,,,0.00,Wunderground v.1.15,2013-01-21 20:16:00,
2013-01-21 12:22:00,77.3,1.0,29.71,ENE,63,11.0,21.0,5,0.00,,,0.00,Wunderground v.1.15,2013-01-21 20:22:00,
2013-01-21 12:27:00,77.4,1.1,29.71,NE,37,12.0,21.0,5,0.00,,,0.00,Wunderground v.1.15,2013-01-21 20:27:00,
2013-01-21 12:37:00,77.8,1.4,29.70,ENE,63,10.0,11.0,5,0.00,,,0.00,Wunderground v.1.15,2013-01-21 20:37:00,
2013-01-21 12:43:00,77.8,1.4,29.70,NE,36,11.0,17.0,5,0.00,,,0.00,Wunderground v.1.15,2013-01-21 20:43:00,
2013-01-21 12:48:00,77.9,1.4,29.69,ENE,61,11.0,15.0,5,0.00,,,0.00,Wunderground v.1.15,2013-01-21 20:48:00,
2013-01-21 12:54:00,78.2,1.6,29.69,ESE,105,9.0,15.0,5,0.00,,,0.00,Wunderground v.1.15,2013-01-21 20:54:00,
2013-01-21 12:59:00,78.3,5.7,29.68,East,84,8.0,11.0,6,0.00,,,0.00,Wunderground v.1.15,2013-01-21 20:59:00,
2013-01-21 13:04:00,78.4,1.8,29.68,ENE,62,9.0,13.0,5,0.00,,,0.00,Wunderground v.1.15,2013-01-21 21:04:00,
2013-01-21 13:09:00,78.4,1.8,29.69,North,9,10.0,20.0,5,0.00,,,0.00,Wunderground v.1.15,2013-01-21 21:09:00,
2013-01-21 13:14:00,78.5,1.9,29.68,NE,48,10.0,13.0,5,0.00,,,0.00,Wunderground v.1.15,2013-01-21 21:14:00,
2013-01-21 13:20:00,78.7,6.0,29.68,NE,46,9.0,9.0,6,0.00,,,0.00,Wunderground v.1.15,2013-01-21 21:20:00,
2013-01-21 13:31:00,78.9,2.1,29.68,North,5,9.0,9.0,5,0.00,,,0.00,Wunderground v.1.15,2013-01-21 21:31:00,
2013-01-21 13:36:00,79.0,2.2,29.67,ENE,76,8.0,12.0,5,0.00,,,0.00,Wunderground v.1.15,2013-01-21 21:36:00,
2013-01-21 13:41:00,79.0,2.2,29.67,NNE,31,9.0,9.0,5,0.00,,,0.00,Wunderground v.1.15,2013-01-21 21:41:00,
2013-01-21 13:46:00,78.9,2.1,29.67,ENE,69,10.0,11.0,5,0.00,,,0.00,Wunderground v.1.15,2013-01-21 21:46:00,
2013-01-21 13:52:00,78.9,2.1,29.67,NE,38,9.0,9.0,5,0.00,,,0.00,Wunderground v.1.15,2013-01-21 21:52:00,
2013-01-21 13:57:00,78.9,6.1,29.67,East,88,9.0,13.0,6,0.00,,,0.00,Wunderground v.1.15,2013-01-21 21:57:00,
2013-01-21 14:02:00,79.0,6.2,29.67,East,91,8.0,11.0,6,0.00,,,0.00,Wunderground v.1.15,2013-01-21 22:02:00,
2013-01-21 14:07:00,79.3,6.4,29.67,ENE,66,8.0,13.0,6,0.00,,,0.00,Wunderground v.1.15,2013-01-21 22:07:00,
2013-01-21 14:13:00,79.2,2.4,29.67,NNW,343,8.0,12.0,5,0.00,,,0.00,Wunderground v.1.15,2013-01-21 22:13:00,
2013-01-21 14:18:00,79.1,2.3,29.67,East,88,8.0,13.0,5,0.00,,,0.00,Wunderground v.1.15,2013-01-21 22:18:00,
2013-01-21 14:23:00,79.0,2.2,29.67,ENE,70,9.0,10.0,5,0.00,,,0.00,Wunderground v.1.15,2013-01-21 22:23:00,
2013-01-21 14:28:00,78.8,6.0,29.67,NE,40,9.0,10.0,6,0.00,,,0.00,Wunderground v.1.15,2013-01-21 22:28:00,
2013-01-21 14:33:00,78.6,1.9,29.67,NE,47,9.0,9.0,5,0.00,,,0.00,Wunderground v.1.15,2013-01-21 22:33:00,
2013-01-21 14:39:00,78.6,1.9,29.67,NE,51,8.0,14.0,5,0.00,,,0.00,Wunderground v.1.15,2013-01-21 22:39:00,
2013-01-21 14:44:00,78.5,5.8,29.67,East,92,7.0,10.0,6,0.00,,,0.00,Wunderground v.1.15,2013-01-21 22:44:00,
2013-01-21 14:49:00,78.3,1.7,29.67,East,100,8.0,10.0,5,0.00,,,0.00,Wunderground v.1.15,2013-01-21 22:49:00,
2013-01-21 14:55:00,77.8,1.4,29.67,East,88,8.0,16.0,5,0.00,,,0.00,Wunderground v.1.15,2013-01-21 22:55:00,
2013-01-21 15:00:00,77.5,1.2,29.67,NE,53,8.0,10.0,5,0.00,,,0.00,Wunderground v.1.15,2013-01-21 23:00:00,
2013-01-21 15:05:00,77.2,4.9,29.66,ENE,78,8.0,13.0,6,0.00,,,0.00,Wunderground v.1.15,2013-01-21 23:05:00,
2013-01-21 15:11:00,77.0,0.8,29.66,ENE,59,8.0,8.0,5,0.00,,,0.00,Wunderground v.1.15,2013-01-21 23:11:00,
2013-01-21 15:16:00,76.9,0.7,29.67,NE,52,8.0,13.0,5,0.00,,,0.00,Wunderground v.1.15,2013-01-21 23:16:00,
2013-01-21 15:21:00,76.8,0.7,29.66,ESE,108,8.0,10.0,5,0.00,,,0.00,Wunderground v.1.15,2013-01-21 23:21:00,
2013-01-21 15:26:00,76.6,0.5,29.66,East,86,8.0,11.0,5,0.00,,,0.00,Wunderground v.1.15,2013-01-21 23:26:00,
2013-01-21 15:31:00,76.5,4.4,29.66,East,99,6.0,14.0,6,0.00,,,0.00,Wunderground v.1.15,2013-01-21 23:31:00,
2013-01-21 15:37:00,76.6,0.5,29.66,NE,42,6.0,14.0,5,0.00,,,0.00,Wunderground v.1.15,2013-01-21 23:37:00,
2013-01-21 15:42:00,76.8,4.6,29.66,NNW,348,7.0,7.0,6,0.00,,,0.00,Wunderground v.1.15,2013-01-21 23:42:00,
2013-01-21 15:47:00,76.9,4.7,29.66,East,101,7.0,11.0,6,0.00,,,0.00,Wunderground v.1.15,2013-01-21 23:47:00,
2013-01-21 15:53:00,77.0,4.7,29.66,ENE,69,7.0,8.0,6,0.00,,,0.00,Wunderground v.1.15,2013-01-21 23:53:00,
2013-01-21 15:58:00,76.8,4.6,29.66,North,11,6.0,9.0,6,0.00,,,0.00,Wunderground v.1.15,2013-01-21 23:58:00,
2013-01-21 16:03:00,76.6,4.5,29.65,ENE,73,6.0,10.0,6,0.00,,,0.00,Wunderground v.1.15,2013-01-22 00:03:00,
2013-01-21 16:08:00,76.5,4.4,29.65,ENE,65,7.0,11.0,6,0.00,,,0.00,Wunderground v.1.15,2013-01-22 00:08:00,
2013-01-21 16:14:00,76.2,4.2,29.65,East,79,6.0,10.0,6,0.00,,,0.00,Wunderground v.1.15,2013-01-22 00:14:00,
2013-01-21 16:19:00,75.7,3.8,29.64,ENE,74,7.0,11.0,6,0.00,,,0.00,Wunderground v.1.15,2013-01-22 00:19:00,
2013-01-21 16:24:00,74.9,6.6,29.64,East,86,7.0,10.0,7,0.00,,,0.00,Wunderground v.1.15,2013-01-22 00:24:00,
2013-01-21 16:29:00,74.4,6.2,29.64,ENE,71,6.0,10.0,7,0.00,,,0.00,Wunderground v.1.15,2013-01-22 00:29:00,
2013-01-21 16:44:00,72.9,8.1,29.64,ENE,60,5.0,7.0,8,0.00,,,0.00,Wunderground v.1.15,2013-01-22 00:44:00,
2013-01-21 16:50:00,72.3,10.2,29.63,ENE,69,5.0,9.0,9,0.00,,,0.00,Wunderground v.1.15,2013-01-22 00:50:00,
2013-01-21 16:55:00,71.8,9.9,29.63,NE,46,4.0,4.0,9,0.00,,,0.00,Wunderground v.1.15,2013-01-22 00:55:00,
2013-01-21 17:00:00,71.4,9.6,29.63,ENE,59,4.0,5.0,9,0.00,,,0.00,Wunderground v.1.15,2013-01-22 01:00:00,
2013-01-21 17:05:00,70.9,6.6,29.63,East,81,4.0,6.0,8,0.00,,,0.00,Wunderground v.1.15,2013-01-22 01:05:00,
2013-01-21 17:10:00,70.5,6.3,29.63,East,80,4.0,4.0,8,0.00,,,0.00,Wunderground v.1.15,2013-01-22 01:10:00,
2013-01-21 17:16:00,70.3,3.2,29.63,ENE,59,5.0,10.0,7,0.00,,,0.00,Wunderground v.1.15,2013-01-22 01:16:00,
2013-01-21 17:34:00,70.0,3.0,29.63,NE,46,6.0,6.0,7,0.00,,,0.00,Wunderground v.1.15,2013-01-22 01:34:00,
2013-01-21 17:40:00,69.8,2.8,29.63,East,91,6.0,7.0,7,0.00,,,0.00,Wunderground v.1.15,2013-01-22 01:40:00,
2013-01-21 17:45:00,69.7,2.8,29.63,ENE,76,5.0,6.0,7,0.00,,,0.00,Wunderground v.1.15,2013-01-22 01:45:00,
2013-01-21 17:50:00,69.4,2.5,29.64,ESE,103,5.0,6.0,7,0.00,,,0.00,Wunderground v.1.15,2013-01-22 01:50:00,
2013-01-21 17:55:00,68.7,4.9,29.64,NE,51,4.0,4.0,8,0.00,,,0.00,Wunderground v.1.15,2013-01-22 01:55:00,
2013-01-21 18:00:00,67.8,6.8,29.64,ENE,71,3.0,3.0,9,0.00,,,0.00,Wunderground v.1.15,2013-01-22 02:00:00,
2013-01-21 18:31:00,64.9,9.0,29.65,East,91,4.0,4.0,11,0.00,,,0.00,Wunderground v.1.15,2013-01-22 02:31:00,
2013-01-21 18:37:00,64.7,8.9,29.65,ENE,77,3.0,5.0,11,0.00,,,0.00,Wunderground v.1.15,2013-01-22 02:37:00,
2013-01-21 18:42:00,64.3,10.5,29.66,NE,46,3.0,3.0,12,0.00,,,0.00,Wunderground v.1.15,2013-01-22 02:42:00,
2013-01-21 18:47:00,63.9,10.2,29.66,NE,55,2.0,4.0,12,0.00,,,0.00,Wunderground v.1.15,2013-01-22 02:47:00,
2013-01-21 18:52:00,63.5,11.7,29.66,NE,51,2.0,4.0,13,0.00,,,0.00,Wunderground v.1.15,2013-01-22 02:52:00,
2013-01-21 18:57:00,63.0,11.3,29.66,NE,47,2.0,4.0,13,0.00,,,0.00,Wunderground v.1.15,2013-01-22 02:57:00,
2013-01-21 19:02:00,62.4,14.1,29.66,East,82,2.0,3.0,15,0.00,,,0.00,Wunderground v.1.15,2013-01-22 03:02:00,
2013-01-21 19:07:00,61.5,16.2,29.66,NE,44,1.0,3.0,17,0.00,,,0.00,Wunderground v.1.15,2013-01-22 03:07:00,
2013-01-21 19:13:00,60.1,18.8,29.66,NNE,32,1.0,3.0,20,0.00,,,0.00,Wunderground v.1.15,2013-01-22 03:13:00,
2013-01-21 19:18:00,58.9,20.1,29.66,NNE,28,1.0,3.0,22,0.00,,,0.00,Wunderground v.1.15,2013-01-22 03:18:00,
2013-01-21 19:23:00,57.6,20.0,29.67,NNE,28,0.0,3.0,23,0.00,,,0.00,Wunderground v.1.15,2013-01-22 03:23:00,
2013-01-21 19:28:00,56.1,21.6,29.67,NNE,20,1.0,3.0,26,0.00,,,0.00,Wunderground v.1.15,2013-01-22 03:28:00,
2013-01-21 19:33:00,54.7,20.4,29.67,NE,38,1.0,3.0,26,0.00,,,0.00,Wunderground v.1.15,2013-01-22 03:33:00,
2013-01-21 19:38:00,53.8,21.4,29.67,NE,44,1.0,4.0,28,0.00,,,0.00,Wunderground v.1.15,2013-01-22 03:38:00,
2013-01-21 20:05:00,57.0,13.8,29.68,NNE,13,4.0,4.0,18,0.00,,,0.00,Wunderground v.1.15,2013-01-22 04:05:00,
2013-01-21 20:11:00,58.1,14.8,29.68,NNE,16,4.0,5.0,18,0.00,,,0.00,Wunderground v.1.15,2013-01-22 04:11:00,
2013-01-21 20:16:00,58.4,13.7,29.68,North,355,4.0,9.0,17,0.00,,,0.00,Wunderground v.1.15,2013-01-22 04:16:00,
2013-01-21 20:21:00,59.0,12.8,29.69,NE,44,4.0,9.0,16,0.00,,,0.00,Wunderground v.1.15,2013-01-22 04:21:00,
2013-01-21 20:26:00,59.5,13.2,29.69,North,360,4.0,4.0,16,0.00,,,0.00,Wunderground v.1.15,2013-01-22 04:26:00,
2013-01-21 20:31:00,59.6,13.3,29.69,NE,34,4.0,6.0,16,0.00,,,0.00,Wunderground v.1.15,2013-01-22 04:31:00,